timestamp,wind_dir_avg,wind_spd_avg,wind_spd_max_dir,wind_spd_gust,battery_voltage,lat,long
2021-06-24 00:04:01+00:00,207.0,7.32,217.0,8.48,12.73,47.59359,-54.27349
2021-06-24 00:14:01+00:00,213.0,9.09,214.0,9.93,12.65,47.59359,-54.27349
2021-06-24 00:24:01+00:00,211.0,8.74,215.0,10.15,12.65,47.59359,-54.27349
2021-06-24 00:34:01+00:00,214.0,9.46,215.0,10.93,12.65,47.59359,-54.27349
2021-06-24 00:44:01+00:00,211.0,9.66,208.0,11.53,12.65,47.59359,-54.27349
2021-06-24 00:54:01+00:00,214.0,9.19,216.0,10.24,12.65,47.59359,-54.27349
2021-06-24 01:04:01+00:00,218.0,7.61,212.0,8.6,12.65,47.59359,-54.27349
2021-06-24 01:14:00+00:00,220.0,7.05,222.0,8.12,12.65,47.59359,-54.27349
2021-06-24 01:24:00+00:00,206.0,7.62,206.0,8.69,12.65,47.59359,-54.27349
2021-06-24 01:34:00+00:00,214.0,7.51,209.0,8.44,12.65,47.59359,-54.27349
2021-06-24 01:44:00+00:00,215.0,9.44,212.0,10.72,12.65,47.59359,-54.27349
2021-06-24 01:54:00+00:00,215.0,10.29,217.0,11.95,12.65,47.59359,-54.27349
2021-06-24 02:04:00+00:00,212.0,8.28,206.0,10.21,12.65,47.59359,-54.27349
2021-06-24 02:14:00+00:00,208.0,9.65,207.0,10.84,12.57,47.59359,-54.27349
2021-06-24 02:24:00+00:00,209.0,8.68,211.0,9.76,12.57,47.59359,-54.27349
2021-06-24 02:34:00+00:00,203.0,8.46,206.0,9.22,12.57,47.59359,-54.27349
2021-06-24 02:44:00+00:00,203.0,9.25,203.0,10.08,12.57,47.59359,-54.27349
2021-06-24 02:54:00+00:00,208.0,8.37,206.0,9.41,12.57,47.59359,-54.27349
2021-06-24 03:04:00+00:00,211.0,7.98,211.0,8.72,12.57,47.59359,-54.27349
2021-06-24 03:14:00+00:00,211.0,7.7,214.0,8.47,12.57,47.59359,-54.27349
2021-06-24 03:24:00+00:00,210.0,8.03,207.0,8.82,12.57,47.59359,-54.27349
2021-06-24 03:34:00+00:00,212.0,8.04,211.0,8.86,12.57,47.59359,-54.27349
2021-06-24 03:44:00+00:00,211.0,8.16,209.0,9.14,12.57,47.59359,-54.27349
2021-06-24 03:54:00+00:00,214.0,7.46,212.0,8.03,12.57,47.59359,-54.27349
2021-06-24 04:04:00+00:00,209.0,6.95,208.0,7.92,12.57,47.59359,-54.27349
2021-06-24 04:14:00+00:00,211.0,7.69,211.0,8.12,12.57,47.59359,-54.27349
2021-06-24 04:24:00+00:00,210.0,6.9,210.0,7.54,12.57,47.59359,-54.27349
2021-06-24 04:34:00+00:00,214.0,6.07,215.0,6.46,12.57,47.59359,-54.27349
2021-06-24 04:44:00+00:00,210.0,6.79,211.0,7.09,12.57,47.59359,-54.27349
2021-06-24 04:54:00+00:00,208.0,5.6,208.0,6.06,12.57,47.59359,-54.27349
2021-06-24 05:04:00+00:00,206.0,4.38,219.0,5.13,12.57,47.59359,-54.27349
2021-06-24 05:14:00+00:00,204.0,4.93,208.0,5.71,12.57,47.59359,-54.27349
2021-06-24 05:24:00+00:00,213.0,3.77,218.0,4.16,12.57,47.59359,-54.27349
2021-06-24 05:34:00+00:00,247.0,2.78,257.0,3.72,12.57,47.59359,-54.27349
2021-06-24 05:44:00+00:00,270.0,5.35,272.0,6.51,12.57,47.59359,-54.27349
2021-06-24 05:54:00+00:00,276.0,6.97,272.0,7.89,12.57,47.59359,-54.27349
2021-06-24 06:04:00+00:00,290.0,8.28,291.0,9.28,12.57,47.59359,-54.27349
2021-06-24 06:14:01+00:00,305.0,8.26,308.0,9.19,12.49,47.59359,-54.27349
2021-06-24 06:24:01+00:00,303.0,8.97,302.0,10.85,12.49,47.59359,-54.27349
2021-06-24 06:34:01+00:00,302.0,7.15,304.0,8.1,12.49,47.59359,-54.27349
2021-06-24 06:44:01+00:00,301.0,7.07,307.0,9.3,12.49,47.59359,-54.27349
2021-06-24 06:54:01+00:00,307.0,6.98,312.0,7.85,12.49,47.59359,-54.27349
2021-06-24 07:04:01+00:00,294.0,5.38,297.0,7.43,12.49,47.59359,-54.27349
2021-06-24 07:14:00+00:00,297.0,4.53,300.0,6.19,12.49,47.59359,-54.27349
2021-06-24 07:24:00+00:00,295.0,6.17,293.0,7.5,12.49,47.59359,-54.27349
2021-06-24 07:34:00+00:00,298.0,4.07,301.0,5.09,12.49,47.59359,-54.27349
2021-06-24 07:44:00+00:00,295.0,5.77,294.0,6.83,12.49,47.59359,-54.27349
2021-06-24 07:54:00+00:00,296.0,6.15,292.0,7.16,12.49,47.59359,-54.27349
2021-06-24 08:04:00+00:00,290.0,5.28,294.0,5.78,12.49,47.59359,-54.27349
2021-06-24 08:14:00+00:00,283.0,3.66,286.0,4.37,12.41,47.59359,-54.27349
2021-06-24 08:24:00+00:00,270.0,3.63,270.0,3.97,12.41,47.59359,-54.27349
2021-06-24 08:34:00+00:00,283.0,4.14,290.0,4.89,12.41,47.59359,-54.27349
2021-06-24 08:44:00+00:00,286.0,3.51,292.0,4.11,12.41,47.59359,-54.27349
2021-06-24 08:54:00+00:00,271.0,4.21,271.0,4.9,12.41,47.59359,-54.27349
2021-06-24 09:04:00+00:00,283.0,3.89,284.0,4.43,12.41,47.59359,-54.27349
2021-06-24 09:14:01+00:00,283.0,5.06,290.0,5.84,12.81,47.59359,-54.27349
2021-06-24 09:24:01+00:00,283.0,3.93,285.0,4.81,12.81,47.59359,-54.27349
2021-06-24 09:34:01+00:00,278.0,4.85,285.0,5.64,12.81,47.59359,-54.27349
2021-06-24 09:44:01+00:00,276.0,4.84,265.0,5.97,12.81,47.59359,-54.27349
2021-06-24 09:54:01+00:00,290.0,5.84,286.0,6.69,12.81,47.59359,-54.27349
2021-06-24 10:04:01+00:00,288.0,5.35,297.0,6.21,12.81,47.59359,-54.27349
2021-06-24 10:14:01+00:00,296.0,4.45,318.0,5.0,13.44,47.59359,-54.27349
2021-06-24 10:24:01+00:00,285.0,3.67,282.0,4.16,13.44,47.59359,-54.27349
2021-06-24 10:34:01+00:00,292.0,5.59,292.0,6.47,13.44,47.59359,-54.27349
2021-06-24 10:44:01+00:00,301.0,5.85,294.0,7.18,13.44,47.59359,-54.27349
2021-06-24 10:54:01+00:00,316.0,6.96,319.0,7.74,13.44,47.59359,-54.27349
2021-06-24 11:04:01+00:00,304.0,8.44,301.0,9.54,13.44,47.59359,-54.27349
2021-06-24 11:14:01+00:00,302.0,6.21,305.0,7.26,13.84,47.59359,-54.27349
2021-06-24 11:24:01+00:00,300.0,6.26,305.0,7.63,13.84,47.59359,-54.27349
2021-06-24 11:34:01+00:00,300.0,3.56,296.0,4.43,13.84,47.59359,-54.27349
2021-06-24 11:44:01+00:00,313.0,5.77,306.0,6.56,13.84,47.59359,-54.27349
2021-06-24 11:54:01+00:00,316.0,6.49,313.0,7.61,13.84,47.59359,-54.27349
2021-06-24 12:04:01+00:00,311.0,6.11,310.0,7.33,13.84,47.59359,-54.27349
2021-06-24 12:14:01+00:00,314.0,7.9,320.0,9.24,13.84,47.59359,-54.27349
2021-06-24 12:24:01+00:00,305.0,5.49,297.0,6.52,13.84,47.59359,-54.27349
2021-06-24 12:34:01+00:00,316.0,6.4,315.0,7.44,13.84,47.59359,-54.27349
2021-06-24 12:44:01+00:00,311.0,6.69,309.0,7.98,13.84,47.59359,-54.27349
2021-06-24 12:54:01+00:00,315.0,6.25,308.0,8.36,13.84,47.59359,-54.27349
2021-06-24 13:04:01+00:00,317.0,6.26,315.0,7.3,13.84,47.59359,-54.27349
2021-06-24 13:14:01+00:00,309.0,6.61,308.0,8.56,14.08,47.59359,-54.27349
2021-06-24 13:24:01+00:00,326.0,6.9,327.0,7.34,14.08,47.59359,-54.27349
2021-06-24 13:34:01+00:00,317.0,6.21,326.0,7.05,14.08,47.59359,-54.27349
2021-06-24 13:44:01+00:00,316.0,7.52,321.0,8.0,14.08,47.59359,-54.27349
2021-06-24 13:54:01+00:00,324.0,7.51,324.0,8.57,14.08,47.59359,-54.27349
2021-06-24 14:04:01+00:00,315.0,6.9,318.0,7.5,14.08,47.59359,-54.27349
2021-06-24 14:14:01+00:00,304.0,8.95,311.0,10.15,14.08,47.59359,-54.27349
2021-06-24 14:24:01+00:00,316.0,9.15,319.0,10.01,14.08,47.59359,-54.27349
2021-06-24 14:34:01+00:00,331.0,6.33,340.0,7.4,14.08,47.59359,-54.27349
2021-06-24 14:44:01+00:00,337.0,6.66,340.0,7.6,14.08,47.59359,-54.27349
2021-06-24 14:54:01+00:00,333.0,6.13,331.0,6.6,14.08,47.59359,-54.27349
2021-06-24 15:04:01+00:00,323.0,6.34,321.0,7.16,14.08,47.59359,-54.27349
2021-06-24 15:14:01+00:00,320.0,6.38,320.0,7.17,14.32,47.59359,-54.27349
2021-06-24 15:24:01+00:00,312.0,5.47,309.0,6.09,14.32,47.59359,-54.27349
2021-06-24 15:34:01+00:00,336.0,7.8,338.0,9.2,14.32,47.59359,-54.27349
2021-06-24 15:44:01+00:00,327.0,6.84,326.0,8.17,14.32,47.59359,-54.27349
2021-06-24 15:54:01+00:00,352.0,5.3,347.0,6.56,14.32,47.59359,-54.27349
2021-06-24 16:04:01+00:00,318.0,4.02,322.0,4.74,14.32,47.59359,-54.27349
2021-06-24 16:14:01+00:00,331.0,6.0,333.0,6.78,14.32,47.59359,-54.27349
2021-06-24 16:24:01+00:00,324.0,9.97,324.0,10.96,14.32,47.59359,-54.27349
2021-06-24 16:34:01+00:00,316.0,6.96,308.0,9.68,14.32,47.59359,-54.27349
2021-06-24 16:44:01+00:00,343.0,5.4,349.0,6.33,14.32,47.59359,-54.27349
2021-06-24 16:54:01+00:00,323.0,7.22,322.0,7.96,14.32,47.59359,-54.27349
2021-06-24 17:04:01+00:00,325.0,4.76,321.0,5.36,14.32,47.59359,-54.27349
2021-06-24 18:14:01+00:00,339.0,4.08,335.0,4.97,13.84,47.59359,-54.27349
2021-06-24 18:24:01+00:00,325.0,3.66,322.0,4.43,13.84,47.59359,-54.27349
2021-06-24 18:34:01+00:00,357.0,1.97,348.0,2.53,13.84,47.59359,-54.27349
2021-06-24 18:44:01+00:00,336.0,4.61,338.0,5.4,13.84,47.59359,-54.27349
2021-06-24 18:54:01+00:00,330.0,3.76,326.0,4.08,13.84,47.59359,-54.27349
2021-06-24 19:04:01+00:00,337.0,3.41,343.0,3.87,13.84,47.59359,-54.27349
2021-06-24 19:14:01+00:00,327.0,3.27,324.0,4.11,13.92,47.59359,-54.27349
2021-06-24 19:24:01+00:00,197.0,4.07,195.0,5.02,13.92,47.59359,-54.27349
2021-06-24 19:34:01+00:00,209.0,5.91,206.0,6.52,13.92,47.59359,-54.27349
2021-06-24 19:44:01+00:00,200.0,5.95,201.0,6.51,13.92,47.59359,-54.27349
2021-06-24 19:54:01+00:00,206.0,6.13,207.0,6.7,13.92,47.59359,-54.27349
2021-06-24 20:04:01+00:00,209.0,4.87,204.0,5.36,13.92,47.59359,-54.27349
2021-06-24 20:14:01+00:00,222.0,3.55,229.0,4.68,13.76,47.59359,-54.27349
2021-06-24 20:24:01+00:00,280.0,3.15,286.0,4.59,13.76,47.59359,-54.27349
2021-06-24 20:34:01+00:00,291.0,5.9,286.0,7.14,13.76,47.59359,-54.27349
2021-06-24 20:44:01+00:00,285.0,8.12,283.0,8.47,13.76,47.59359,-54.27349
2021-06-24 20:54:01+00:00,293.0,6.27,296.0,6.93,13.76,47.59359,-54.27349
2021-06-24 21:04:01+00:00,288.0,6.11,283.0,7.17,13.76,47.59359,-54.27349
2021-06-24 21:14:01+00:00,284.0,5.55,284.0,5.92,13.68,47.59359,-54.27349
2021-06-24 21:24:01+00:00,286.0,6.84,289.0,7.23,13.68,47.59359,-54.27349
2021-06-24 21:34:01+00:00,283.0,6.94,286.0,7.41,13.68,47.59359,-54.27349
2021-06-24 21:44:01+00:00,283.0,7.29,285.0,7.62,13.68,47.59359,-54.27349
2021-06-24 21:54:01+00:00,282.0,7.74,283.0,8.27,13.68,47.59359,-54.27349
2021-06-24 22:04:01+00:00,288.0,7.96,289.0,9.02,13.68,47.59359,-54.27349
2021-06-24 22:14:01+00:00,277.0,6.99,276.0,7.37,13.53,47.59359,-54.27349
2021-06-24 22:24:01+00:00,268.0,5.73,270.0,7.01,13.53,47.59359,-54.27349
2021-06-24 22:34:01+00:00,276.0,6.91,279.0,7.25,13.53,47.59359,-54.27349
2021-06-24 22:44:01+00:00,284.0,6.84,286.0,7.6,13.53,47.59359,-54.27349
2021-06-24 22:54:01+00:00,283.0,7.44,287.0,8.27,13.53,47.59359,-54.27349
2021-06-24 23:04:01+00:00,284.0,7.13,286.0,7.57,13.53,47.59359,-54.27349
2021-06-24 23:14:01+00:00,288.0,6.51,285.0,7.46,13.29,47.59359,-54.27349
2021-06-24 23:24:01+00:00,281.0,7.19,282.0,7.51,13.29,47.59359,-54.27349
2021-06-24 23:34:01+00:00,282.0,6.46,283.0,7.48,13.29,47.59359,-54.27349
2021-06-24 23:44:01+00:00,289.0,3.31,289.0,4.12,13.29,47.59359,-54.27349
2021-06-24 23:54:01+00:00,129.0,6.08,140.0,6.99,13.29,47.59359,-54.27349
